Regional Weather Roundup
Issued by NWS

Home | Current Version | Previous Version | Text Only | Print | Product List | Glossary On
Versions: 1 2 3 4 5 6 7 8 9 10 11 12 13 14 15 16 17 18 19 20 21 22 23 24 25 26 27 28 29 30 31 32 33 34 35 36 37 38 39 40 41 42 43 44 45 46 47 48 49 50
000
ASUS43 KBIS 261702
RWRND

NORTH DAKOTA REGIONAL WEATHER ROUNDUP
NATIONAL WEATHER SERVICE BISMARCK ND
1200 PM CDT WED APR 26 2017

NOTE: "FAIR" INDICATES FEW OR NO CLOUDS BELOW 12,000 FEET WITH NO
SIGNIFICANT WEATHER AND/OR OBSTRUCTIONS TO VISIBILITY.


NDZ001>003-009>011-017-261800-
NORTHWEST NORTH DAKOTA

CITY           SKY/WX    TMP DP  RH WIND       PRES   REMARKS
WILLISTON      FAIR      42  22  44 E7        29.91F
MINOT          FAIR      39  22  50 N18       29.87F
MINOT AFB      MOSUNNY   39  21  47 N16G25    29.87F
$$

NDZ018>021-031>035-040>046-261800-
SOUTHWEST NORTH DAKOTA

CITY           SKY/WX    TMP DP  RH WIND       PRES   REMARKS
BISMARCK       PTSUNNY   39  25  57 NE17      29.84F
DICKINSON      FAIR      39  21  48 VRB5G18   29.83F
GARRISON         N/A     38  22  52 N13G23    29.85F
HETTINGER ARPT CLOUDY    37  24  59 N14G21    29.85F
$$

NDZ004>008-012>016-024-026-027-054-261800-
NORTHEAST NORTH DAKOTA

CITY           SKY/WX    TMP DP  RH WIND       PRES   REMARKS
GRAND FORKS    FLURRIES  31  25  78 NE20      29.82F WCI  19
GRND FRKS AFB  MIX PCPN  30  23  74 NE20      29.82F WCI  18
DEVILS LAKE    CLOUDY    30  24  78 NE18G26   29.85F WCI  18
$$

NDZ022-023-025-028>030-036>039-047>053-261800-
SOUTHEAST NORTH DAKOTA

CITY           SKY/WX    TMP DP  RH WIND       PRES   REMARKS
FARGO          LGT SNOW  29  26  89 N17       29.75F FOG     WCI  17
JAMESTOWN      CLOUDY    29  25  85 N18       29.79F WCI  16
$$




USA.gov is the U.S. government's official web portal to all federal, state and local government web resources and services.